Location: Palmerston North
(40.3500°S, 175.6170°E)
Time: 09:56:35
(UTC+13:00)

Cosmos 2237 - Pass Details

Date: 24 January 2019
Orbit: 845 x 857 km, 70.8° (Epoch: 19 February)

Event Time Altitude Azimuth Distance (km) Brightness Sun altitude
Exits shadow 22:25:18 17° 5° (N) 2,007 5.7 -16.6°
Maximum altitude 22:29:24 48° 73° (ENE) 1,109 4.4 -17.2°
Drops below altitude 10° 22:34:54 10° 145° (SE) 2,505 6.8 -17.9°
Sets 22:37:26 0° 150° (SSE) 3,446 7.6 -18.2°
